Location: Unspecified
(51.0950°N, 12.9690°E)
Time: 17:48:30
(UTC+00:00)

CUBEBUG 2 - Pass Details

Date: 24 April 2024
Orbit: 570 x 669 km, 97.8° (Epoch: 21 May)

Event Time Altitude Azimuth Distance (km) Brightness Sun altitude
Rises 02:03:32 0° 8° (N) 2,792 ? -15.2°
Reaches altitude 10° 02:05:45 10° 2° (N) 1,894 ? -15.0°
Maximum altitude 02:09:37 43° 291° (WNW) 828 ? -14.6°
Enters shadow 02:11:38 24° 235° (SW) 1,218 ? -14.3°
